Location: Dillon
(41.1766°N, 107.0923°W)
Time: 22:09:39
(UTC+00:00)

AO-73 - Visible Passes

Search period start: 28 June 2022 00:00
Search period end: 08 July 2022 00:00
Orbit: 579 x 658 km, 97.6° (Epoch: 28 June)

Date Brightness Start Highest point End Pass type
(mag) Time Alt. Az. Time Alt. Az. Time Alt. Az.
29 Jun ? 09:58:01 10° ENE 10:00:02 13° E 10:02:02 10° ESE visible
30 Jun ? 10:13:43 10° NE 10:16:57 19° E 10:20:12 10° SE visible
01 Jul ? 10:29:55 10° NE 10:33:49 29° E 10:37:45 10° SSE visible
02 Jul ? 10:46:21 10° NNE 10:50:39 43° E 10:54:58 10° S visible
03 Jul ? 11:02:57 10° NNE 11:07:27 67° ESE 11:11:57 10° S visible
05 Jul ? 10:01:59 10° ENE 10:04:30 15° E 10:07:03 10° SE visible
06 Jul ? 10:17:53 10° NE 10:21:24 22° E 10:24:55 10° SE visible
07 Jul ? 10:34:10 10° NNE 10:38:15 32° E 10:42:19 10° SSE visible
